Current weather by "City, St" or "zip code"  
 
Advertise Here

Current Conditions: Witham Field Airport, FL

A Few Clouds


75.0 F

Last Updated on Feb 28 2021, 7:47 am EST
Humidity: 74%
Wind Speed: SE 11.5 G 17.3 mph
Barometer 30.22 in
Dewpoint: 66.2 F
Visibility: 10.00 mi
Precip: --
Heat Index: NA
Wind Chill: NA
Current conditions at:

Witham Field Airport, FL (KSUA)

Lat: 27.18157 Lon: 80.22519

Local Radar Image active severe weather and emergency alerts image image weather storm and storm spotter reports image weather observation monitoring service image
Local
Radar
Active
Alerts
Storm Reports Obs
Monitoring

Sign-up For Email & Text Message Weather Alert Notification Services


Advertise Here

Observation History for Witham Field Airport, FL


Time Wind
(mph)
Vis
(mi)
Weather Precip (in) Temperature (F) Relative
Humidity
Wind
Chill
(F)
Heat
Index
(F)
Pressure
Air Dwpt altimeter
(in)
sea level
(mb)
Rmks
7:47 am EST SE 11.5 G 17.3 10.00 A Few Clouds -- 75.0 66.2 74% NA NA 30.22 M
6:47 am EST SE 8.1 10.00 A Few Clouds -- 73.0 64.4 74% NA NA 30.20 M
5:55 am EST SE 8.1 10.00 Fair -- 73.0 64.4 74% NA NA 30.20 M
4:55 am EST SE 6.9 10.00 Fair -- 73.0 64.4 74% NA NA 30.20 M
3:55 am EST SE 10.4 10.00 Fair -- 73.0 64.4 74% NA NA 30.19 M
2:55 am EST SE 8.1 10.00 Partly Cloudy -- 73.0 66.2 78% NA NA 30.20 M
1:55 am EST SE 6.9 10.00 Overcast -- 73.0 68.0 83% NA NA 30.22 M
12:55 am EST E 8.1 10.00 Fair -- 73.0 68.0 83% NA NA 30.23 M
11:55 pm EST SE 11.5 10.00 Mostly Cloudy -- 75.0 69.8 83% NA NA 30.24 M
10:55 pm EST SE 8.1 10.00 Fair -- 73.0 68.0 83% NA NA 30.24 M
9:55 pm EST SE 4.6 10.00 Fair -- 72.0 68.0 88% NA NA 30.24 M
8:50 pm EST SE 4.6 10.00 Fair -- 73.0 66.2 78% NA NA 30.23 M
7:50 pm EST SE 4.6 10.00 Fair -- 73.0 66.2 78% NA NA 30.22 M
6:50 pm EST SE 5.8 10.00 Fair -- 75.0 66.2 74% NA NA 30.21 M
5:50 pm EST E 10.4 10.00 Partly Cloudy -- 77.0 68.0 74% NA NA 30.20 M
4:50 pm EST SE 13.8 10.00 Partly Cloudy -- 81.0 68.0 66% NA 84 30.19 M
3:50 pm EST E 16.1 10.00 Partly Cloudy -- 81.0 68.0 66% NA 84 30.19 M
2:50 pm EST E 16.1 G 20.7 10.00 Partly Cloudy -- 82.0 68.0 62% NA 85 30.19 M
1:47 pm EST SE 15.0 G 18.4 10.00 Partly Cloudy -- 84.0 66.2 55% NA 86 30.20 M
12:50 pm EST SE 17.3 G 26.5 10.00 Partly Cloudy -- 82.0 66.2 58% NA 84 30.22 M
11:47 am EST SE 17.3 G 23.0 10.00 Partly Cloudy -- 82.0 66.2 58% NA 84 30.25 M
10:47 am EST SE 16.1 G 25.3 10.00 Partly Cloudy -- 81.0 66.2 62% NA 83 30.25 M
9:47 am EST SE 13.8 10.00 Partly Cloudy -- 77.0 68.0 74% NA NA 30.24 M
8:47 am EST SE 11.5 10.00 Partly Cloudy -- 77.0 68.0 74% NA NA 30.23 M

Regional Weather Observation


Fort Pierce, St. Lucie County International Airport, FL (KFPR)

Fair
76.0 F

Vero Beach, Vero Beach Municipal Airport, FL (KVRB)

Fair
75.0 F

Okeechobee County Airport, FL (KOBE)

Fair
70.0 F

Sebastian Municipal Airport, FL (KX26)

Fair
74.0 F

North Palm Beach County General Aviation Airport, FL (KF45)

Fair
75.0 F

West Palm Beach - Palm Beach International Airport, FL (KPBI)

Partly Cloudy
78.0 F
Advertise Here

Advertise Here